TimeMST,TemperatureF,Dew PointF,Humidity,Sea Level PressureIn,VisibilityMPH,Wind Direction,Wind SpeedMPH,Gust SpeedMPH,PrecipitationIn,Events,Conditions,WindDirDegrees,DateUTC
12:51 AM,57.0,19.9,24,29.93,9.0,WSW,8.1,-,N/A,,Clear,250,2013-03-07 07:51:00
1:51 AM,55.9,19.9,25,29.91,9.0,West,6.9,-,N/A,,Clear,260,2013-03-07 08:51:00
2:51 AM,53.1,19.9,27,29.91,9.0,West,11.5,-,N/A,,Clear,260,2013-03-07 09:51:00
3:51 AM,55.0,19.9,25,29.90,9.0,WSW,10.4,-,N/A,,Clear,250,2013-03-07 10:51:00
4:51 AM,54.0,19.9,26,29.92,9.0,WSW,5.8,-,N/A,,Clear,250,2013-03-07 11:51:00
5:51 AM,54.0,19.9,26,29.94,9.0,WSW,9.2,-,N/A,,Clear,250,2013-03-07 12:51:00
6:51 AM,54.0,19.9,26,29.97,8.0,SW,8.1,-,N/A,,Clear,230,2013-03-07 13:51:00
7:51 AM,55.0,19.9,25,29.99,7.0,West,6.9,-,N/A,,Clear,260,2013-03-07 14:51:00
8:51 AM,57.0,21.0,25,29.99,8.0,WSW,8.1,-,N/A,,Clear,250,2013-03-07 15:51:00
9:51 AM,63.0,21.9,21,29.97,7.0,WSW,13.8,-,N/A,,Clear,240,2013-03-07 16:51:00
10:51 AM,63.0,21.0,20,29.95,7.0,SW,21.9,-,N/A,,Clear,230,2013-03-07 17:51:00
11:51 AM,68.0,21.9,17,29.91,8.0,WSW,20.7,27.6,N/A,,Clear,240,2013-03-07 18:51:00
12:51 PM,70.0,21.0,16,29.88,8.0,WSW,19.6,-,N/A,,Clear,240,2013-03-07 19:51:00
1:51 PM,72.0,19.9,14,29.85,8.0,WSW,16.1,20.7,N/A,,Clear,240,2013-03-07 20:51:00
2:51 PM,71.1,19.9,14,29.85,8.0,WSW,17.3,-,N/A,,Clear,240,2013-03-07 21:51:00
3:51 PM,71.1,21.0,15,29.85,8.0,SW,6.9,-,N/A,,Clear,220,2013-03-07 22:51:00
4:51 PM,69.1,21.0,16,29.85,8.0,SSW,16.1,-,N/A,,Clear,210,2013-03-07 23:51:00
5:51 PM,66.0,21.0,18,29.87,8.0,South,8.1,-,N/A,,Clear,180,2013-03-08 00:51:00
6:51 PM,64.9,21.9,19,29.86,9.0,SSW,11.5,-,N/A,,Clear,210,2013-03-08 01:51:00
7:51 PM,64.0,21.9,20,29.88,9.0,SSW,11.5,-,N/A,,Clear,210,2013-03-08 02:51:00
8:51 PM,63.0,21.9,21,29.89,9.0,Calm,Calm,-,N/A,,Overcast,0,2013-03-08 03:51:00
9:51 PM,63.0,21.9,21,29.88,9.0,SW,20.7,24.2,N/A,,Overcast,230,2013-03-08 04:51:00
10:51 PM,62.1,26.1,25,29.89,9.0,WSW,32.2,57.5,N/A,,Overcast,240,2013-03-08 05:51:00
11:51 PM,52.0,39.9,63,29.93,3.0,WSW,32.2,47.2,0.01,Rain,Rain,250,2013-03-08 06:51:00